11/07/2024 08:15:00,1.715
11/07/2024 08:30:00,1.719
11/07/2024 08:45:00,1.718
11/07/2024 09:00:00,1.72
11/07/2024 09:15:00,1.715
11/07/2024 09:30:00,1.714
11/07/2024 09:45:00,1.718
11/07/2024 10:00:00,1.712
11/07/2024 10:15:00,1.714
11/07/2024 10:30:00,1.714
11/07/2024 10:45:00,1.714
11/07/2024 11:00:00,1.712
11/07/2024 11:15:00,1.718
11/07/2024 11:30:00,1.723
11/07/2024 11:45:00,1.715
11/07/2024 12:00:00,1.712
11/07/2024 12:15:00,1.714
11/07/2024 12:30:00,1.71
11/07/2024 12:45:00,1.71
11/07/2024 13:00:00,1.716
11/07/2024 13:15:00,1.713
11/07/2024 13:30:00,1.715
11/07/2024 13:45:00,1.712
11/07/2024 14:00:00,1.715
11/07/2024 14:15:00,1.714
11/07/2024 14:30:00,1.71
11/07/2024 14:45:00,1.709
11/07/2024 15:00:00,1.712
11/07/2024 15:15:00,1.707
11/07/2024 15:30:00,1.709
11/07/2024 15:45:00,1.706
11/07/2024 16:00:00,1.709
11/07/2024 16:15:00,1.706
11/07/2024 16:30:00,1.713
11/07/2024 16:45:00,1.711
11/07/2024 17:00:00,1.71
11/07/2024 17:15:00,1.707
11/07/2024 17:30:00,1.715
11/07/2024 17:45:00,1.712
11/07/2024 18:00:00,1.716
11/07/2024 18:15:00,1.711
11/07/2024 18:30:00,1.712
11/07/2024 18:45:00,1.711
11/07/2024 19:00:00,1.711
11/07/2024 19:15:00,1.712
11/07/2024 19:30:00,1.711
11/07/2024 19:45:00,1.709
11/07/2024 20:00:00,1.709
11/07/2024 20:15:00,1.708
11/07/2024 20:30:00,1.708
11/07/2024 20:45:00,1.706
11/07/2024 21:00:00,1.711
11/07/2024 21:15:00,1.708
11/07/2024 21:30:00,1.711
11/07/2024 21:45:00,1.711
11/07/2024 22:00:00,1.709
11/07/2024 22:15:00,1.711
11/07/2024 22:30:00,1.704
11/07/2024 22:45:00,1.71
11/07/2024 23:00:00,1.702
11/07/2024 23:15:00,1.709
11/07/2024 23:30:00,1.706
11/07/2024 23:45:00,1.707
12/07/2024 00:00:00,1.718
12/07/2024 00:15:00,1.74
12/07/2024 00:30:00,1.753
12/07/2024 00:45:00,1.753
12/07/2024 01:00:00,1.753
12/07/2024 01:15:00,1.756
12/07/2024 01:30:00,1.754
12/07/2024 01:45:00,1.755
12/07/2024 02:00:00,1.759
12/07/2024 02:15:00,1.756
12/07/2024 02:30:00,1.756
12/07/2024 02:45:00,1.752
12/07/2024 03:00:00,1.756
12/07/2024 03:15:00,1.758
12/07/2024 03:30:00,1.757
12/07/2024 03:45:00,1.757
12/07/2024 04:00:00,1.761
12/07/2024 04:15:00,1.756
12/07/2024 04:30:00,1.758
12/07/2024 04:45:00,1.758
12/07/2024 05:00:00,1.76
12/07/2024 05:15:00,1.758
12/07/2024 05:30:00,1.758
12/07/2024 05:45:00,1.759
12/07/2024 06:00:00,1.761
12/07/2024 06:15:00,1.76
12/07/2024 06:30:00,1.759
12/07/2024 06:45:00,1.762
12/07/2024 07:00:00,1.764
12/07/2024 07:15:00,1.759
12/07/2024 07:30:00,1.758
12/07/2024 07:45:00,1.758
12/07/2024 08:00:00,1.761
12/07/2024 08:15:00,1.763
12/07/2024 08:30:00,1.755
12/07/2024 08:45:00,1.758
12/07/2024 09:00:00,1.755
12/07/2024 09:15:00,1.758
12/07/2024 09:30:00,1.757
12/07/2024 09:45:00,1.762
12/07/2024 10:00:00,1.757
12/07/2024 10:15:00,1.76
12/07/2024 10:30:00,1.759
12/07/2024 10:45:00,1.762
12/07/2024 11:00:00,1.761
12/07/2024 11:15:00,1.76
12/07/2024 11:30:00,1.76
12/07/2024 11:45:00,1.762
12/07/2024 12:00:00,1.761
12/07/2024 12:15:00,1.76
12/07/2024 12:30:00,1.762
12/07/2024 12:45:00,1.762
12/07/2024 13:00:00,1.761
12/07/2024 13:15:00,1.761
12/07/2024 13:30:00,1.762
12/07/2024 13:45:00,1.762
12/07/2024 14:00:00,1.763
12/07/2024 14:15:00,1.76
12/07/2024 14:30:00,1.76
12/07/2024 14:45:00,1.76
12/07/2024 15:00:00,1.755
12/07/2024 15:15:00,1.73
12/07/2024 15:30:00,1.715
12/07/2024 15:45:00,1.704
12/07/2024 16:00:00,1.703
12/07/2024 16:15:00,1.706
12/07/2024 16:30:00,1.705
12/07/2024 16:45:00,1.703
12/07/2024 17:00:00,1.706
12/07/2024 17:15:00,1.702
12/07/2024 17:30:00,1.704
12/07/2024 17:45:00,1.706
12/07/2024 18:00:00,1.706
12/07/2024 18:15:00,1.7
12/07/2024 18:30:00,1.701
12/07/2024 18:45:00,1.704
12/07/2024 19:00:00,1.7
12/07/2024 19:15:00,1.699
12/07/2024 19:30:00,1.701
12/07/2024 19:45:00,1.705
12/07/2024 20:00:00,1.704
12/07/2024 20:15:00,1.701
12/07/2024 20:30:00,1.703
12/07/2024 20:45:00,1.696
12/07/2024 21:00:00,1.7
12/07/2024 21:15:00,1.699
12/07/2024 21:30:00,1.698
12/07/2024 21:45:00,1.697
12/07/2024 22:00:00,1.701
12/07/2024 22:15:00,1.699
12/07/2024 22:30:00,1.695
12/07/2024 22:45:00,1.699
12/07/2024 23:00:00,1.7
12/07/2024 23:15:00,1.698
12/07/2024 23:30:00,1.7
12/07/2024 23:45:00,1.698
13/07/2024 00:00:00,1.7
13/07/2024 00:15:00,1.698
13/07/2024 00:30:00,1.701
13/07/2024 00:45:00,1.697
13/07/2024 01:00:00,1.7
13/07/2024 01:15:00,1.698
13/07/2024 01:30:00,1.7
13/07/2024 01:45:00,1.698
13/07/2024 02:00:00,1.696
13/07/2024 02:15:00,1.7
13/07/2024 02:30:00,1.701
13/07/2024 02:45:00,1.698
13/07/2024 03:00:00,1.701
13/07/2024 03:15:00,1.701
13/07/2024 03:30:00,1.696
13/07/2024 03:45:00,1.701
13/07/2024 04:00:00,1.701
13/07/2024 04:15:00,1.704
13/07/2024 04:30:00,1.698
13/07/2024 04:45:00,1.702
13/07/2024 05:00:00,1.698
13/07/2024 05:15:00,1.7
13/07/2024 05:30:00,1.696
13/07/2024 05:45:00,1.703
13/07/2024 06:00:00,1.7
13/07/2024 06:15:00,1.702
13/07/2024 06:30:00,1.7
13/07/2024 06:45:00,1.704
13/07/2024 07:00:00,1.697
13/07/2024 07:15:00,1.698
13/07/2024 07:30:00,1.701
13/07/2024 07:45:00,1.702
13/07/2024 08:00:00,1.702
13/07/2024 08:15:00,1.7
13/07/2024 08:30:00,1.701
13/07/2024 08:45:00,1.696
13/07/2024 09:00:00,1.702
13/07/2024 09:15:00,1.698
13/07/2024 09:30:00,1.7
13/07/2024 09:45:00,1.704
13/07/2024 10:00:00,1.702
13/07/2024 10:15:00,1.702
13/07/2024 10:30:00,1.703
13/07/2024 10:45:00,1.703
13/07/2024 11:00:00,1.699
13/07/2024 11:15:00,1.704
13/07/2024 11:30:00,1.707
13/07/2024 11:45:00,1.705
13/07/2024 12:00:00,1.706
13/07/2024 12:15:00,1.706
13/07/2024 12:30:00,1.701
13/07/2024 12:45:00,1.704
13/07/2024 13:00:00,1.704
13/07/2024 13:15:00,1.705
13/07/2024 13:30:00,1.706
13/07/2024 13:45:00,1.704
13/07/2024 14:00:00,1.703
13/07/2024 14:15:00,1.703
13/07/2024 14:30:00,1.706
13/07/2024 14:45:00,1.703
13/07/2024 15:00:00,1.703
13/07/2024 15:15:00,1.7
13/07/2024 15:30:00,1.705
13/07/2024 15:45:00,1.705
13/07/2024 16:00:00,1.703
13/07/2024 16:15:00,1.705
13/07/2024 16:30:00,1.703
13/07/2024 16:45:00,1.684
13/07/2024 17:00:00,1.639
13/07/2024 17:15:00,1.603
13/07/2024 17:30:00,1.589
13/07/2024 17:45:00,1.581
13/07/2024 18:00:00,1.582
13/07/2024 18:15:00,1.578
13/07/2024 18:30:00,1.58
13/07/2024 18:45:00,1.577
13/07/2024 19:00:00,1.577
13/07/2024 19:15:00,1.58
13/07/2024 19:30:00,1.577
13/07/2024 19:45:00,1.574
13/07/2024 20:00:00,1.575
13/07/2024 20:15:00,1.577
13/07/2024 20:30:00,1.573
13/07/2024 20:45:00,1.574
13/07/2024 21:00:00,1.576
13/07/2024 21:15:00,1.574
13/07/2024 21:30:00,1.573
13/07/2024 21:45:00,1.576
13/07/2024 22:00:00,1.577
13/07/2024 22:15:00,1.574
13/07/2024 22:30:00,1.577
13/07/2024 22:45:00,1.58
13/07/2024 23:00:00,1.574
13/07/2024 23:15:00,1.575
13/07/2024 23:30:00,1.577
13/07/2024 23:45:00,1.572
14/07/2024 00:00:00,1.575
14/07/2024 00:15:00,1.576
14/07/2024 00:30:00,1.563
14/07/2024 00:45:00,1.548
14/07/2024 01:00:00,1.54
14/07/2024 01:15:00,1.54
14/07/2024 01:30:00,1.538
14/07/2024 01:45:00,1.537
14/07/2024 02:00:00,1.535
14/07/2024 02:15:00,1.535
14/07/2024 02:30:00,1.54
14/07/2024 02:45:00,1.537
14/07/2024 03:00:00,1.536
14/07/2024 03:15:00,1.536
14/07/2024 03:30:00,1.537
14/07/2024 03:45:00,1.537
14/07/2024 04:00:00,1.541
14/07/2024 04:15:00,1.536
14/07/2024 04:30:00,1.541
14/07/2024 04:45:00,1.536
14/07/2024 05:00:00,1.536
14/07/2024 05:15:00,1.537
14/07/2024 05:30:00,1.535
14/07/2024 05:45:00,1.536
14/07/2024 06:00:00,1.539
14/07/2024 06:15:00,1.54
14/07/2024 06:30:00,1.539
14/07/2024 06:45:00,1.538
14/07/2024 07:00:00,1.54
14/07/2024 07:15:00,1.536
14/07/2024 07:30:00,1.535
14/07/2024 07:45:00,1.541
14/07/2024 08:00:00,1.535
14/07/2024 08:15:00,1.535
14/07/2024 08:30:00,1.536
14/07/2024 08:45:00,1.532
14/07/2024 09:00:00,1.534
14/07/2024 09:15:00,1.529
14/07/2024 09:30:00,1.534
14/07/2024 09:45:00,1.529
14/07/2024 10:00:00,1.533
14/07/2024 10:15:00,1.53
14/07/2024 10:30:00,1.533
14/07/2024 10:45:00,1.531
14/07/2024 11:00:00,1.533
14/07/2024 11:15:00,1.53
14/07/2024 11:30:00,1.532
14/07/2024 11:45:00,1.535
14/07/2024 12:00:00,1.531
14/07/2024 12:15:00,1.531
14/07/2024 12:30:00,1.533
14/07/2024 12:45:00,1.533
14/07/2024 13:00:00,1.529
14/07/2024 13:15:00,1.534
14/07/2024 13:30:00,1.531
14/07/2024 13:45:00,1.531
14/07/2024 14:00:00,1.531
14/07/2024 14:15:00,1.532
14/07/2024 14:30:00,1.56
14/07/2024 14:45:00,1.594
14/07/2024 15:00:00,1.615
14/07/2024 15:15:00,1.623
14/07/2024 15:30:00,1.628
14/07/2024 15:45:00,1.624
14/07/2024 16:00:00,1.627
14/07/2024 16:15:00,1.627
14/07/2024 16:30:00,1.63
14/07/2024 16:45:00,1.63
14/07/2024 17:00:00,1.63
14/07/2024 17:15:00,1.629
14/07/2024 17:30:00,1.632
14/07/2024 17:45:00,1.631
14/07/2024 18:00:00,1.627
14/07/2024 18:15:00,1.63
14/07/2024 18:30:00,1.629
14/07/2024 18:45:00,1.628
14/07/2024 19:00:00,1.624
14/07/2024 19:15:00,1.628
14/07/2024 19:30:00,1.628
14/07/2024 19:45:00,1.628
14/07/2024 20:00:00,1.628
14/07/2024 20:15:00,1.626
14/07/2024 20:30:00,1.627
14/07/2024 20:45:00,1.626
14/07/2024 21:00:00,1.622
14/07/2024 21:15:00,1.626
14/07/2024 21:30:00,1.623
14/07/2024 21:45:00,1.623
14/07/2024 22:00:00,1.619
14/07/2024 22:15:00,1.624
14/07/2024 22:30:00,1.623
14/07/2024 22:45:00,1.626
14/07/2024 23:00:00,1.627
14/07/2024 23:15:00,1.623
14/07/2024 23:30:00,1.622
14/07/2024 23:45:00,1.624
15/07/2024 00:00:00,1.624
15/07/2024 00:15:00,1.625
15/07/2024 00:30:00,1.626
15/07/2024 00:45:00,1.623
15/07/2024 01:00:00,1.626
15/07/2024 01:15:00,1.626
15/07/2024 01:30:00,1.627
15/07/2024 01:45:00,1.623
15/07/2024 02:00:00,1.623
15/07/2024 02:15:00,1.624
15/07/2024 02:30:00,1.629
15/07/2024 02:45:00,1.623
15/07/2024 03:00:00,1.623
15/07/2024 03:15:00,1.621
15/07/2024 03:30:00,1.625
15/07/2024 03:45:00,1.625
15/07/2024 04:00:00,1.625
15/07/2024 04:15:00,1.621
15/07/2024 04:30:00,1.626
15/07/2024 04:45:00,1.628
15/07/2024 05:00:00,1.627
15/07/2024 05:15:00,1.627
15/07/2024 05:30:00,1.623
15/07/2024 05:45:00,1.627
15/07/2024 06:00:00,1.624
15/07/2024 06:15:00,1.623
15/07/2024 06:30:00,1.622
15/07/2024 06:45:00,1.625
15/07/2024 07:00:00,1.623
15/07/2024 07:15:00,1.623
15/07/2024 07:30:00,1.626
15/07/2024 07:45:00,1.626
15/07/2024 08:00:00,1.624
15/07/2024 08:15:00,1.622
15/07/2024 08:30:00,1.621
15/07/2024 08:45:00,1.624
15/07/2024 09:00:00,1.623
15/07/2024 09:15:00,1.622
15/07/2024 09:30:00,1.623
15/07/2024 09:45:00,1.618
15/07/2024 10:00:00,1.622
15/07/2024 10:15:00,1.623
15/07/2024 10:30:00,1.621
15/07/2024 10:45:00,1.621
15/07/2024 11:00:00,1.623
15/07/2024 11:15:00,1.626
15/07/2024 11:30:00,1.626
15/07/2024 11:45:00,1.624
15/07/2024 12:00:00,1.626
15/07/2024 12:15:00,1.63
15/07/2024 12:30:00,1.641
15/07/2024 12:45:00,1.652
15/07/2024 13:00:00,1.655
15/07/2024 13:15:00,1.66
15/07/2024 13:30:00,1.662
15/07/2024 13:45:00,1.66
15/07/2024 14:00:00,1.66
15/07/2024 14:15:00,1.661
15/07/2024 14:30:00,1.658
15/07/2024 14:45:00,1.663
15/07/2024 15:00:00,1.656
15/07/2024 15:15:00,1.664
15/07/2024 15:30:00,1.658
15/07/2024 15:45:00,1.66
15/07/2024 16:00:00,1.658
15/07/2024 16:15:00,1.659
15/07/2024 16:30:00,1.66
15/07/2024 16:45:00,1.66
15/07/2024 17:00:00,1.662
15/07/2024 17:15:00,1.664
15/07/2024 17:30:00,1.665
15/07/2024 17:45:00,1.662
15/07/2024 18:00:00,1.66
15/07/2024 18:15:00,1.659
15/07/2024 18:30:00,1.656
15/07/2024 18:45:00,1.659
15/07/2024 19:00:00,1.661
15/07/2024 19:15:00,1.658
15/07/2024 19:30:00,1.66
15/07/2024 19:45:00,1.657
15/07/2024 20:00:00,1.661
15/07/2024 20:15:00,1.659
15/07/2024 20:30:00,1.663
15/07/2024 20:45:00,1.66
15/07/2024 21:00:00,1.663
15/07/2024 21:15:00,1.654
15/07/2024 21:30:00,1.659
15/07/2024 21:45:00,1.659
15/07/2024 22:00:00,1.658
15/07/2024 22:15:00,1.655
15/07/2024 22:30:00,1.658
15/07/2024 22:45:00,1.659
15/07/2024 23:00:00,1.659
15/07/2024 23:15:00,1.655
15/07/2024 23:30:00,1.659
15/07/2024 23:45:00,1.655
16/07/2024 00:00:00,1.657
16/07/2024 00:15:00,1.66
16/07/2024 00:30:00,1.659
16/07/2024 00:45:00,1.657
16/07/2024 01:00:00,1.658
16/07/2024 01:15:00,1.659
16/07/2024 01:30:00,1.656
16/07/2024 01:45:00,1.659
16/07/2024 02:00:00,1.658
16/07/2024 02:15:00,1.66
16/07/2024 02:30:00,1.664
16/07/2024 02:45:00,1.671
16/07/2024 03:00:00,1.678
16/07/2024 03:15:00,1.682
16/07/2024 03:30:00,1.682
16/07/2024 03:45:00,1.683
16/07/2024 04:00:00,1.682
16/07/2024 04:15:00,1.682
16/07/2024 04:30:00,1.682
16/07/2024 04:45:00,1.681
16/07/2024 05:00:00,1.683
16/07/2024 05:15:00,1.684
16/07/2024 05:30:00,1.681
16/07/2024 05:45:00,1.684
16/07/2024 06:00:00,1.685
16/07/2024 06:15:00,1.69
16/07/2024 06:30:00,1.686
16/07/2024 06:45:00,1.683
16/07/2024 07:00:00,1.685
